This is the latest recevied weather packets stored in our database for station/object K6TTR. If no packets are shown the sender has not sent any weather packets the latest 10 day(s).
| Time | Temp. | Humidity | Pressure | Rain* | Wind** | Luminosity | Snow |
|---|---|---|---|---|---|---|---|
| 1777948716 | 8.89° C | 83% | 1012 hPa | 0 mm | - | 11 W/m² | - |
| 1777948424 | 8.89° C | 83% | 1011.8 hPa | 0 mm | - | 11 W/m² | - |
| 1777948128 | 8.89° C | 83% | 1011.7 hPa | 0 mm | - | 12 W/m² | - |
| 1777947812 | 8.89° C | 83% | 1011.7 hPa | 0 mm | - | 12 W/m² | - |
| 1777947516 | 8.89° C | 83% | 1011.8 hPa | 0 mm | - | 16 W/m² | - |
| 1777947220 | 9.44° C | 83% | 1011.8 hPa | 0 mm | - | 19 W/m² | - |
| 1777946925 | 9.44° C | 83% | 1011.7 hPa | 0 mm | - | 19 W/m² | - |
| 1777946631 | 9.44° C | 83% | 1011.4 hPa | 0 mm | - | 28 W/m² | - |
| 1777946316 | 9.44° C | 83% | 1011.5 hPa | 0 mm | - | 37 W/m² | - |
| 1777946021 | 9.44° C | 82% | 1011.4 hPa | 0 mm | - | 32 W/m² | - |
| 1777945726 | 9.44° C | 82% | 1011.4 hPa | 0 mm | - | 47 W/m² | - |
| 1777945430 | 9.44° C | 83% | 1011.4 hPa | 0 mm | - | 54 W/m² | - |
| 1777945115 | 9.44° C | 83% | 1011.6 hPa | 0 mm | - | 47 W/m² | - |
| 1777944819 | 9.44° C | 83% | 1011.6 hPa | 0 mm | - | 44 W/m² | - |
| 1777944526 | 9.44° C | 82% | 1011.5 hPa | 0 mm | - | 40 W/m² | - |
| 1777944229 | 10° C | 81% | 1011.6 hPa | 0 mm | - | 46 W/m² | - |
| 1777943917 | 10° C | 81% | 1011.5 hPa | 0 mm | - | 40 W/m² | - |
| 1777943624 | 10.56° C | 80% | 1011.3 hPa | 0 mm | - | 53 W/m² | - |
| 1777943330 | 10.56° C | 81% | 1010.9 hPa | 0 mm | - | 63 W/m² | - |
| 1777943016 | 10.56° C | 80% | 1011 hPa | 0 mm | - | 88 W/m² | - |
| 1777942723 | 11.11° C | 80% | 1011 hPa | 0 mm | - | 91 W/m² | - |
| 1777942428 | 11.11° C | 79% | 1010.8 hPa | 0 mm | - | 83 W/m² | - |
| 1777942116 | 11.11° C | 78% | 1010.6 hPa | 0 mm | - | 105 W/m² | - |
| 1777941823 | 11.67° C | 78% | 1010.6 hPa | 0 mm | - | 185 W/m² | - |
| 1777941528 | 11.67° C | 77% | 1010.5 hPa | 0 mm | - | 195 W/m² | - |
* Rain latest hour (hover to see other rain measurements)
** Current wind speed in m/s (hover to see current wind gust speed)